FENGYUN 1C DEB, 36710

Orbit data source: Space-Track

FENGYUN 1C DEB, 36710 is space debris in SSO originally from a launch on Mon, 10 May 1999 UTC launched from the Taiyaun Space Center, China (TSC). Fengyun 1C debris stems from the Chinese weather satellite Fengyun-1C, which was intentionally destroyed by a Chinese anti-satellite missile in 2007. This event dramatically increased the amount of space debris, with thousands of trackable fragments posing hazards to satellites and human spaceflight. The Fengyun 1C debris cloud has become a focal point in discussions about space sustainability and the need for international regulations to prevent the creation of new debris.

Loading next visibility...
Identifier
36710, 1999-025EAG
Orbit
SSO
Country
Flag of CNCN / PRC
Related business
Manufacturer
Unknown
Mission
Spacecraft
Bus & Motor
Unknown
Mass
Unknown
Launch date (UTC)
1999-05-10 (27 years ago)
Launch vehicle
Unknown
Launch site
Taiyaun Space Center, China (TSC)
Object type
Payload
Rocket body
Debris
Shape & HBR
Unknown shape, 0.1 m
Radar Cross Section
Small (<0.1 m²)

Expand to show TLE details & history
Last TLE update: 16 hours ago

TLE from 16 hours ago
0 FENGYUN 1C DEB
1 36710U 99025EAG 26256.89936691  .00002992  00000-0  72727-3 0  9994
2 36710  98.3544 317.6335 0065201  61.3227 299.4503 14.52285501689441
Epoch: 2026-09-13T21:35Z
TLE epoch observation values (Epoch: 2026-09-13T21:35:05.301Z)
Latitude
0.00003°
Longitude
0.97401°
Altitude
698.64 km
Speed
7.519 km/s
True Right ascension
21h 10m 32s
True Declination
0° 00' 00"
Sunlit
Object was in full shadow at epoch
Visualization orbit readout
Latitude
Unknown
Longitude
Unknown
Altitude
Unknown
Speed
Unknown
Apparent Right ascension
Unknown
Apparent Declination
Unknown
Sunlit
N/A
Visualization observer readout
Local Sidereal Time
05:48:44
Azimuth
Unknown
Elevation
Unknown
Doppler factor
Unknown
Orbital elements
Apogee altitude
761.542 km
Perigee altitude
669.042 km
Semi-major axis
7,093.429 km
Eccentricity
0.00652
Inclination
98.3544°
RAAN
317.6335°
Arg. of periapsis
61.3227°
True anomaly
298.79709°
Mean anomaly
299.4503°
Eccentric anomaly
299.12396°
Mean motion
3.63295 °/min
Orbital period
99.09 mins
BSTAR
0.00072727
Loading maneuver chart data...
Computing Atmospheric mass density...

Documentation

Showing up to 5 results
|